Theta_e
313 313 312 313 313 314 312 308 301 298 297 296 296 296 296 296 295 294 293 292 291 289 289 289 288 288 287 287 286 285 285 285 285 285 284 284 284 284 283 283 282 282 283
313 312 312 312 313 312 308 303 298 297 296 296 296 295 295 295 294 293 292 291 290 289 289 288 288 287 287 287 286 285 285 284 284 284 284 284 284 283 283 282 282 282 282
311 311 311 312 311 309 306 299 296 295 295 295 295 295 294 294 293 292 291 290 289 289 288 288 288 287 287 287 286 285 284 284 284 284 284 284 283 283 282 282 282 282 281
310 311 311 312 310 308 304 298 296 295 294 294 294 294 293 293 292 291 290 289 289 288 288 288 287 287 287 287 286 286 285 284 284 283 283 283 282 282 280 280 282 281 281
308 310 311 311 309 306 300 296 295 294 293 293 293 292 292 291 291 290 289 289 288 288 288 287 287 287 287 286 286 286 285 284 284 283 283 282 282 281 279 278 278 279 280
306 309 310 309 306 303 297 295 294 293 292 291 291 291 291 291 290 290 289 288 288 288 287 287 287 287 286 286 286 286 285 285 284 283 283 281 281 279 278 277 276 276 276
305 307 308 307 304 299 296 294 293 293 292 291 290 290 290 290 292 290 288 288 288 287 287 287 287 286 286 286 286 285 285 285 284 283 282 280 279 278 277 276 276 275 275
303 305 305 303 299 296 295 294 293 292 291 291 290 289 289 292 292 288 288 287 287 287 287 286 286 286 286 285 285 285 285 284 284 282 281 280 278 277 276 275 275 274 275
301 302 302 300 298 295 294 293 292 292 291 291 290 289 289 295 289 287 287 287 287 287 286 286 286 286 285 285 285 284 284 284 283 282 281 278 277 277 276 275 274 273 274
300 300 300 299 298 295 294 292 295 294 291 291 289 291 294 291 287 287 287 287 286 286 286 286 285 285 285 284 284 283 284 284 283 282 281 279 277 276 276 274 273 273 272
298 298 298 296 295 294 292 297 294 291 292 290 291 293 291 287 287 286 286 286 286 286 286 286 285 285 284 284 283 283 283 282 282 281 279 278 277 276 275 274 273 272 272
297 296 295 294 293 292 297 294 294 291 291 292 293 291 288 287 287 286 286 286 286 286 286 286 285 284 284 283 283 283 282 279 279 279 279 278 277 276 275 274 273 272 271
300 302 301 300 299 298 296 295 293 293 293 294 290 289 289 289 288 287 286 286 285 285 286 285 285 284 284 283 283 281 279 279 278 278 277 277 276 275 274 273 272 272 272
303 302 300 299 298 297 295 293 293 292 290 290 290 291 291 290 289 287 287 286 286 285 285 284 283 282 281 281 282 281 279 278 277 277 276 275 275 274 273 272 272 272 272
298 297 296 295 294 293 293 292 292 291 291 291 290 289 289 288 287 287 286 286 285 284 283 283 283 282 282 281 280 279 278 277 277 276 276 275 274 273 273 272 271 271 270
295 295 294 294 293 293 292 292 291 290 290 289 288 288 287 287 287 286 285 285 284 284 283 282 282 281 280 278 278 277 277 276 276 275 274 274 273 272 271 271 271 270 269
291 290 290 291 291 291 291 290 289 289 288 288 288 287 287 286 286 285 285 283 279 280 279 278 279 278 278 277 276 275 274 273 273 273 272 272 271 271 270 270 270 269 269
290 290 290 290 290 290 289 289 288 288 287 287 286 285 285 285 284 283 282 282 280 279 279 278 278 278 277 276 275 273 272 271 270 270 270 270 269 269 269 269 269 268 268
290 290 290 289 289 288 288 288 287 286 286 285 284 283 282 282 281 280 281 280 280 278 277 275 274 273 273 272 271 270 269 268 268 268 268 268 268 268 268 268 268 268 267
289 289 288 288 288 287 287 286 285 285 284 283 283 282 281 281 281 280 279 277 276 275 274 273 272 271 271 270 268 267 267 266 266 266 266 266 266 266 267 267 267 267 267
287 287 287 287 286 286 285 284 284 283 282 281 281 280 281 279 277 276 275 274 274 273 272 271 271 270 269 268 267 266 265 265 265 265 265 265 265 266 266 266 266 266 266
285 285 285 284 284 283 283 282 281 281 280 280 278 276 276 275 275 274 274 273 272 271 271 270 270 269 268 267 266 266 266 265 265 264 265 265 265 265 265 266 265 265 266
283 282 282 282 281 281 281 280 279 278 276 275 275 274 274 273 273 273 272 271 271 270 269 269 268 268 267 267 266 266 266 265 265 265 265 265 265 265 265 265 265 265 266
281 280 280 279 279 277 276 275 274 274 274 274 273 273 272 272 271 271 270 270 269 269 268 268 268 268 267 266 266 266 265 265 265 265 265 265 265 265 265 265 265 265 265
279 278 277 275 274 274 274 273 273 273 273 272 272 271 271 270 270 269 268 268 268 268 267 267 267 267 267 266 266 266 266 265 265 265 265 265 265 265 264 264 264 265 265
274 274 274 273 273 273 273 272 272 271 271 270 270 270 269 269 268 268 268 268 268 268 267 267 266 266 265 265 265 265 265 265 265 265 264 264 264 264 264 265 265 265 265
Wind_Speed
43 42 41 39 38 37 37 38 40 38 35 31 27 24 21 18 16 14 12 10 9 7 4 3 3 4 5 7 10 12 14 16 21 24 24 26 30 31 33 34 36 37 41
44 42 41 38 38 39 40 42 42 39 35 31 28 25 23 20 18 16 14 13 11 9 6 5 6 6 8 10 11 13 15 17 21 25 27 28 30 31 34 36 38 39 41
44 43 42 41 41 42 42 44 43 40 36 33 31 28 25 23 21 19 17 15 13 11 9 8 9 9 11 12 14 15 17 20 22 26 29 31 33 33 35 36 38 40 42
46 46 44 44 44 43 44 46 44 40 37 35 33 29 26 24 22 21 19 17 16 13 13 13 13 13 14 15 17 18 20 22 24 27 30 32 33 34 35 37 42 42 43
48 48 47 45 44 44 46 46 44 41 38 36 33 31 28 26 24 22 21 20 18 17 16 16 16 17 18 19 19 20 22 24 26 29 32 34 34 34 34 35 39 42 43
48 49 47 46 45 45 47 46 43 40 39 37 34 32 30 27 22 24 24 22 21 20 20 19 19 20 21 22 23 24 25 26 28 30 33 35 35 34 33 34 37 41 47
48 49 48 46 45 45 45 44 41 40 38 36 34 33 30 23 23 27 26 24 24 23 23 22 23 23 24 25 25 27 27 26 28 31 34 34 34 32 32 35 39 39 42
48 49 47 45 44 43 42 41 40 38 37 35 34 33 28 26 27 30 28 27 27 26 26 25 26 26 26 26 28 30 29 28 29 31 33 33 29 27 26 35 39 39 41
48 50 48 44 42 41 41 40 38 34 36 34 33 31 30 26 32 30 29 29 29 29 28 28 29 29 27 28 32 33 32 33 31 31 33 26 26 30 32 37 37 35 40
48 47 41 40 41 41 39 37 32 36 34 34 31 32 34 30 31 30 30 32 31 31 31 30 30 30 29 30 32 33 36 34 33 35 35 33 30 30 33 36 32 32 32
33 35 37 37 36 36 35 34 30 32 34 29 33 37 30 30 29 31 31 32 33 33 33 32 32 30 31 32 33 35 36 34 35 34 35 34 33 36 38 34 29 28 31
22 23 26 29 32 37 36 31 30 30 34 37 38 33 30 32 31 29 31 33 34 35 34 34 34 32 32 32 33 35 33 26 32 33 36 37 38 38 38 32 29 28 29
15 15 17 20 23 25 23 25 30 36 35 33 33 32 32 29 28 30 31 33 34 36 36 36 35 35 35 34 32 30 25 29 33 36 37 39 37 36 36 32 31 30 32
11 13 15 16 18 20 23 28 30 31 33 32 30 29 27 26 28 29 31 32 32 33 34 35 35 34 33 33 35 34 32 33 35 38 37 36 36 36 35 31 32 32 34
13 14 16 18 20 22 24 25 25 25 25 25 24 24 25 26 27 29 31 31 30 30 30 33 34 33 35 37 36 35 31 31 33 34 36 37 36 36 34 31 31 31 31
10 11 12 14 17 19 20 22 23 23 24 24 24 25 27 29 30 31 30 28 28 27 26 28 29 30 31 30 32 33 33 31 32 34 35 34 35 34 32 31 29 29 29
7 8 10 12 14 17 19 21 23 23 24 26 27 28 29 29 29 28 26 22 16 17 20 23 28 29 30 31 30 30 31 32 30 31 33 33 31 32 31 30 28 28 26
12 13 14 15 17 19 21 22 23 24 25 24 25 25 26 25 23 21 21 21 20 21 24 28 32 35 39 41 40 39 38 35 30 30 31 29 29 30 29 28 27 26 23
14 15 17 19 20 21 22 23 24 24 24 24 24 23 21 20 20 22 22 23 25 27 28 30 32 34 35 36 36 35 33 32 31 31 30 29 28 29 27 26 26 22 20
14 16 16 17 18 19 20 21 21 21 20 19 19 18 19 20 21 21 22 23 25 27 28 29 28 29 31 31 30 29 27 26 25 25 26 27 26 25 25 25 23 21 17
13 13 14 14 15 15 15 15 15 15 15 15 15 16 19 17 18 19 21 22 24 25 26 27 27 27 26 26 25 25 24 24 24 23 23 23 22 23 23 23 21 19 17
9 10 10 11 11 11 12 12 12 12 12 13 13 13 17 16 18 19 21 23 24 24 25 26 25 23 22 21 22 23 23 22 22 22 22 21 21 22 22 20 19 18 17
7 7 8 8 9 10 11 11 11 11 11 12 12 13 15 17 19 20 21 22 23 23 23 23 23 22 21 21 21 22 22 21 20 19 20 20 20 20 19 18 18 18 17
7 7 8 9 9 9 10 10 10 11 12 13 14 15 16 16 17 18 19 20 20 20 21 21 22 22 21 20 21 20 21 20 19 19 19 19 19 18 18 19 18 18 17
9 9 9 10 10 10 11 12 13 14 14 15 15 15 16 16 17 17 18 19 20 21 20 21 21 21 21 21 20 19 19 18 18 18 18 19 18 18 18 18 18 18 18
8 9 9 11 12 13 14 15 16 15 15 15 16 16 16 16 17 17 18 19 19 19 19 19 20 21 21 21 20 19 19 18 18 18 19 19 18 17 17 17 17 17 17
Wind_Direction
219 218 218 218 218 216 214 209 203 201 201 201 202 205 206 208 208 208 208 212 211 215 228 280 300 293 299 310 315 313 312 311 310 313 318 321 321 323 321 319 319 322 325
220 221 220 220 218 214 212 208 204 204 204 205 207 208 209 211 212 212 215 214 215 220 238 264 274 279 291 300 306 308 307 306 306 309 314 316 317 318 317 317 320 324 327
220 221 221 220 218 216 211 208 207 207 207 207 209 211 213 216 215 216 217 216 220 229 245 261 266 275 284 290 298 303 305 304 304 305 308 310 311 314 314 317 319 323 326
222 221 221 221 219 217 212 209 209 210 211 212 213 213 215 216 218 219 220 221 226 235 250 260 267 280 282 285 292 298 302 302 304 303 302 303 306 312 314 319 318 321 324
223 223 222 221 220 218 213 210 212 213 214 216 216 215 215 217 221 225 227 227 232 243 253 259 270 279 279 280 286 292 296 300 303 303 302 302 305 309 314 317 318 320 323
223 223 222 221 219 217 213 213 214 215 217 218 219 221 220 221 226 234 230 232 238 248 256 261 272 277 278 279 283 288 293 300 304 302 301 299 303 306 309 315 318 320 322
224 224 223 221 218 216 214 215 216 218 220 220 222 225 226 224 240 241 234 237 244 253 257 265 273 277 277 279 282 284 289 294 297 298 296 297 300 301 307 314 314 314 313
225 225 223 220 218 216 215 216 218 220 223 225 228 229 229 240 243 236 238 242 249 255 261 269 274 277 279 281 281 281 285 289 295 294 291 292 294 304 300 301 309 309 309
225 224 222 219 218 218 218 219 220 224 227 230 232 235 237 252 242 239 241 249 252 259 265 270 275 279 280 278 278 282 287 290 293 293 294 289 279 282 294 306 308 308 310
224 223 223 222 222 221 221 221 229 234 232 237 233 240 252 247 241 244 247 252 259 264 269 273 275 278 278 277 277 281 284 291 292 292 291 291 292 295 301 306 305 305 306
225 223 221 220 222 222 219 235 232 233 239 235 240 246 250 245 244 246 248 255 261 268 272 276 276 277 276 276 278 282 286 289 289 291 293 293 294 299 303 303 302 302 303
219 218 217 214 215 216 231 223 229 232 233 234 242 247 245 244 244 246 251 256 263 267 272 275 276 276 274 275 277 281 282 280 279 282 284 288 292 297 301 303 302 301 300
195 203 219 221 221 222 220 221 223 229 235 241 243 243 243 245 248 250 252 257 261 267 273 275 276 277 278 279 281 283 273 271 276 279 282 285 291 296 302 303 300 300 299
209 204 204 208 212 216 222 227 231 234 236 238 240 243 247 249 251 255 261 264 265 265 268 271 276 279 281 283 285 284 281 282 280 279 282 285 290 297 301 300 299 302 303
206 213 217 220 222 224 226 227 230 232 236 240 245 251 256 259 262 261 263 266 269 271 271 271 273 276 279 280 282 284 285 284 282 282 281 283 288 295 298 298 298 300 304
196 204 213 219 220 221 224 226 225 229 235 242 247 251 255 260 263 266 270 273 276 275 271 272 276 278 280 284 285 286 284 280 279 279 277 276 285 292 293 293 294 297 303
207 220 228 232 232 233 230 230 234 239 243 247 252 256 257 260 263 269 275 276 259 259 260 265 272 278 282 284 283 282 282 284 282 277 274 277 283 288 289 290 292 295 300
228 230 231 231 235 236 236 239 243 246 249 252 255 257 262 267 271 273 272 277 273 272 271 269 269 271 275 280 283 285 285 285 281 276 278 281 283 285 285 286 288 292 297
240 242 242 243 243 242 242 244 246 247 249 250 252 258 259 259 262 269 278 280 282 280 277 277 278 280 281 283 285 286 286 284 281 279 280 281 281 280 281 282 285 289 293
254 254 254 252 250 248 247 247 248 248 247 247 248 252 255 260 267 276 279 279 281 284 287 288 290 291 292 293 294 293 291 291 290 287 281 276 275 276 279 280 282 286 287
267 265 262 259 254 252 251 250 248 246 244 244 248 253 261 269 273 275 279 284 286 289 292 296 299 300 300 299 297 296 295 293 290 289 283 279 278 277 278 279 281 285 287
267 264 260 256 255 252 248 244 243 246 250 254 257 260 275 280 284 289 292 295 299 302 302 302 303 303 304 302 299 298 296 293 289 286 283 281 278 277 276 278 280 282 284
277 273 267 261 255 252 252 253 253 254 255 259 264 271 278 285 290 295 298 299 300 300 300 302 304 305 304 303 301 301 299 297 292 286 284 281 279 277 276 278 279 278 282
279 272 268 265 263 260 257 256 257 261 266 270 273 277 282 286 291 294 295 295 295 296 298 299 300 301 301 300 298 297 294 291 290 289 286 282 279 275 277 278 279 278 278
282 275 268 263 260 260 262 264 266 268 271 274 279 283 286 288 289 290 291 291 293 294 294 294 296 297 297 296 295 294 290 289 290 287 283 281 279 277 277 278 277 276 272
282 278 277 277 276 275 274 273 272 274 276 278 280 282 283 284 286 286 286 287 289 291 293 294 293 293 293 291 290 289 288 289 287 283 281 278 278 278 278 279 277 277 275